Hourly Data Report for October 30, 2015

All times are specified in Local Standard Time (LST). Add 1 hour to adjust for Daylight Saving Time where and when it is observed.

PETAWAWA AWOS 2
ONTARIO

45°57'00.000" N
77°19'00.000" W
130.10 m
6106396
71625
YWA

Download Data

Hourly Data (October 2015)
Hourly Data Report for October 30, 2015
Temp Definition
°C
Dew Point Temp Definition
°C
Rel Hum Definition
%
Wind Dir Definition
10's deg

Wind Spd Definition
km/h
Visibility Definition
km
Stn Press Definition
kPa
Hmdx Definition


Wind Chill Definition


Weather Definition


TIME
00:00 4.3 1.4 81 30 22 14.5 98.58     Drizzle
01:00 3.7 1.1 83 30 17 14.5 98.77     LegendNANA
02:00 2.8 0.4 84 29 13 14.5 98.91     LegendNANA
03:00 2.1 -0.4 84 28 13 14.5 99.10     LegendNANA
04:00 2.4 -0.9 79 30 9 14.5 99.24     LegendNANA
05:00 1.4 -0.8 85 29 11 14.5 99.42     LegendNANA
06:00 1.8 -0.7 84 29 13 14.5 99.54     LegendNANA
07:00 2.1 -1.4 78 29 11 14.5 99.66     Snow
08:00 2.0 -1.1 80 28 13 14.5 99.79     LegendNANA
09:00 3.6 -2.3 65 30 17 14.5 99.90     Snow
10:00 4.0 -3.3 59 30 22 14.5 100.00     Snow
11:00 4.8 -3.5 55 31 24 14.5 100.08     Snow
12:00 5.5 -3.5 52 29 19 14.5 100.08     Snow
13:00 5.5 -3.0 54 29 13 14.5 100.09     LegendNANA
14:00 6.2 -5.3 44 32 19 14.5 100.10     LegendNANA
15:00 6.1 -5.6 43 32 15 14.5 100.15     LegendNANA
16:00 6.1 -4.9 45 29 13 14.5 100.18     LegendNANA
17:00 5.0 -5.2 48 32 6 14.5 100.24     LegendNANA
18:00 0.6 -3.5 74 26 4 14.5 100.26     LegendNANA
19:00 -0.8 -3.8 80 22 6 14.5 100.32   -3 LegendNANA
20:00 -1.7 -4.4 82 25 4 14.5 100.35   -3 LegendNANA
21:00 -2.2 -3.9 88   0 14.5 100.38     LegendNANA
22:00 -2.7 -3.7 93   0 14.5 100.40     LegendNANA
23:00 -3.1 -4.4 91   0 14.5 100.40     LegendNANA

Notes on Data Quality.

Legend

  • E = Estimated
  • M = Missing
  • NA = Not Available
  • ‡ = Partner data that is not subject to review by the National Climate Archives
Date modified: